User: anonymous   Login
Location: Bittelbronn
(48.4454°N, 8.5870°E)
Time: 19:59:48
(UTC+00:00)
Language:

H-2A R/B - Orbit

View from above orbital plane
View from above orbital plane
View from above satellite
View from above satellite

Ground track
Ground track

The orbit data is extracted from the following two-line orbital elements,

1 38341U 12025E   24202.21010194  .00004481  00000-0  47270-3 0  9997
2 38341  98.4218 115.8303 0051769 100.7036 260.0014 14.88877132659180
Epoch (UTC): 20 July 2024 05:02:32
Eccentricity: 0.0051769
inclination: 98.4218°
perigee height: 565 km
apogee height: 637 km
right ascension of ascending node: 115.8303°
argument of perigee: 100.7036°
revolutions per day: 14.88877132
mean anomaly at epoch: 260.0014°
orbit number at epoch: 65918

The dashed part of the orbit path shows where the satellite is in the earth's shadow,  

DLR